Flag for Germany Weather past 2 weeks in Kaiserslautern, Rhineland-Palatinate, Germany

Now
41 °F

Clear.


Feels Like: 41 °F
Forecast: 45 / 63 °F
Wind: No wind

Location: Ramstein

Current Time: Sep 4, 2015 at 3:33:33 AM

Latest Report: Sep 4, 2015 at 2:58 AM


Visibility: N/A

Pressure: 30.02 "Hg

Humidity: 93%

Dew point: 39 °F

Location of KaiserslauternLocation

Historic Weather in Kaiserslautern — Graph

°F

Kaiserslautern temperature yesterday

Maximum temperature yesterday: 68 °F (at 3:58 PM)
Minimum temperature yesterday: 45 °F (at 11:58 PM)
Average temperature yesterday: 59 °F

Past Weeks' High & Low Weather Summary

 TemperatureHumidityPressure
High92 °F (Aug 30, 4:58 PM)100% (Aug 20, 4:58 AM)30.27 "Hg (Aug 20, 4:58 AM)
Low43 °F (Sep 4, 12:58 AM)21% (Aug 31, 2:58 PM)29.66 "Hg (Aug 24, 12:58 PM)
Average66 °F69%29.99 "Hg
* Reported Aug 20 1:58 AM — Sep 4 1:58 AM, Kaiserslautern, Weather by CustomWeather, © 2015

Note: Actual official high and low records may vary slightly from our data, if they occured in-between our weather recording intervals... More about our weather records

Advertising

Kaiserslautern weather history for previous 24 hours

 ConditionsComfort  
Time TempWeatherWind HumidityBarometerVisibility
1:58 AM
Fri, Sep 4
45 °FClear.No wind87%30.01 "HgN/A
12:58 AM43 °FClear.No wind93%30.02 "HgN/A
11:58 PM
Thu, Sep 3
45 °FClear.No wind87%30.01 "HgN/A
10:58 PM49 °FClear.No wind79%30.00 "HgN/A
9:58 PM50 °FClear.No wind78%29.99 "HgN/A
8:58 PM57 °FSunny.No wind59%29.97 "HgN/A
7:58 PM61 °FSunny.8 mph49%29.96 "HgN/A
6:58 PM66 °FScattered clouds.17 mph39%29.95 "HgN/A
5:58 PM67 °FPassing clouds.14 mph37%29.94 "HgN/A
4:58 PM68 °FScattered clouds.15 mph35%29.94 "HgN/A
3:58 PM68 °FScattered clouds.10 mph35%29.93 "HgN/A
2:58 PM67 °FPassing clouds.7 mph39%29.95 "HgN/A
1:58 PM68 °FSunny.10 mph40%29.96 "HgN/A
12:58 PM66 °FPassing clouds.12 mph44%29.96 "HgN/A
11:58 AM65 °FScattered clouds.9 mph48%29.96 "HgN/A
10:58 AM62 °FScattered clouds.7 mph59%29.98 "HgN/A
9:58 AM59 °FPartly sunny.6 mph69%29.98 "HgN/A
8:58 AM55 °FPassing clouds.3 mph82%29.98 "HgN/A
7:58 AM53 °FOvercast.No wind86%29.97 "HgN/A
6:58 AM50 °FOvercast.3 mph96%29.96 "HgN/A
5:58 AM52 °FOvercast.No wind92%29.96 "HgN/A
4:58 AM54 °FOvercast.No wind88%29.97 "HgN/A
3:58 AM55 °FOvercast.No wind83%29.97 "HgN/A
Weather by CustomWeather, © 2015

See weather overviewHow to use our weather pages